Find OneWeb SL0354

NORAD ID: 49217 Int'l Des: 2021-083 Owner: ONEWEBN Country: UK Constellation: oneweb operational
LEOCIRCULARPOLARONEWEB_TYPE

現在のビュー

3D地球を読み込み中...

About OneWeb SL0354

OneWeb SL0354 (NORAD 49217) is a oneweb constellation satellite launched Sep 14, 2021 by ONEWEBN of UK. It operates in LEO, CIRCULAR, POLAR, ONEWEB_TYPE orbit with a mass of 148.00 kg.

OneWeb SL0354について

説明を読み込み中...

次回通過

Passes for default location (London). Set your location on the main map for personalized predictions.

高度履歴

Loading altitude history...

軌道要素

1 49217U 21083AH 26194.72433322 .00000053 00000-0 99009-4 0 9994
2 49217 87.9185 269.1517 0002269 88.6056 271.5337 13.20770921240316
Epoch: Jul 13, 2026 • Age: 11 hours

現在のステータス

高度 1185.5 km
遠地点 / 近地点 N/A
速度 7.26 km/s
衛星直下点 35.43°N, 88.59°W
打ち上げ日 Sep 14, 2021
運用期間 4.8 years
タイプ internet

技術仕様

分類 Payload
質量 148.00 kg
乾燥質量 140.00 kg
総質量 148.00 kg
長さ 1.30 m
直径 1.00 m
スパン 5.00 m
形状 Trapezoid+2 pan
製造者 ONEWUS
バスタイプ ARROW
フェーズステータス In Orbit
所有者/国 ONEWEBN/UK

Most Searched